Regional Weather Roundup
Issued by NWS Green Bay, WI

Home | Current Version | Previous Version | Graphics & Text | Print | Product List | Glossary Off
Versions: 1 2 3 4 5 6 7 8 9 10 11 12 13 14 15 16 17 18 19 20 21 22 23 24 25 26 27 28 29 30 31 32 33 34 35 36 37 38 39 40 41 42 43 44 45 46 47 48 49 50

000
ASUS43 KGRB 291959
RWRGRB

NORTH-CENTRAL AND NORTHEAST WISCONSIN REGIONAL WEATHER ROUNDUP
NATIONAL WEATHER SERVICE GREEN BAY WI
200 PM CST THU JAN 29 2015

WIZ005-009-010>012-018-019-292100-
NORTH CENTRAL WISCONSIN

CITY           SKY/WX    TMP DP  RH WIND       PRES   REMARKS
IRONWOOD       CLOUDY    23  16  74 NW17G33   30.08R WCI   9
MANITOWISH WTR NOT AVBL
ARBOR VITAE    NOT AVBL
EAGLE RIVER    NOT AVBL
LAND O LAKES   NOT AVBL
RHINELANDER    CLOUDY    26  18  71 NW15G30   29.99R
PHILLIPS       NOT AVBL
ANTIGO         NOT AVBL
TOMAHAWK       NOT AVBL
MERRILL        NOT AVBL
$$

WIZ013-073-292100-
NORTHEAST WISCONSIN

CITY           SKY/WX    TMP DP  RH WIND       PRES   REMARKS
IRON MOUNTAIN  CLOUDY    27  19  72 NW31G39   29.92R
MARINETTE      CLOUDY    34  23  64 N18G24    29.90R
$$

WIZ017-030-035>037-045-292100-
CENTRAL WISCONSIN

CITY           SKY/WX    TMP DP  RH WIND       PRES   REMARKS
MEDFORD        NOT AVBL
WAUSAU         CLOUDY    33  18  53 NW17G30   29.99R
MOSINEE        CLOUDY    32  21  64 NW18G26   30.01R
MARSHFIELD     CLOUDY    33  21  61 NW24G36   30.03R
WISC RAPIDS    CLOUDY    33  19  56 NW17G33   30.04R
STEVENS POINT  NOT AVBL
WAUPACA        NOT AVBL
SHAWANO        NOT AVBL
CLINTONVILLE   NOT AVBL
$$

WIZ038-039-048-051-292100-
FOX VALLEY

CITY           SKY/WX    TMP DP  RH WIND       PRES   REMARKS
NWS GREEN BAY  CLOUDY    34  25  69 NW13      29.94R
APPLETON       CLOUDY    34  23  64 NW16G25   29.95R
OSHKOSH        CLOUDY    34  24  67 NW20G25   29.96R
FOND DU LAC    CLOUDY    34  24  67 NW15G24   29.97R
$$

WIZ022-050-052-292100-
EAST CENTRAL WISCONSIN

CITY           SKY/WX    TMP DP  RH WIND       PRES   REMARKS
STURGEON BAY   CLOUDY    32  25  74 N15       29.92R
MANITOWOC      NOT AVBL
SHEBOYGAN      CLOUDY    34  24  67 NW23G32   29.94R
$$

LMZ563-521-522-541>543-292100-
LAKESHORE

STATION/POSITION TIME  TEMP    WIND        PRES    VSBY  WAVE
                       AIR SEA DIR/SP/G                  HT/PER
                 (UTC) (F)     (DEG/KT/KT) (MB)    (MI)  (FT/S)
SHEBOYGAN LKSHOR 1900   33     320/ 18/ 21 1014.2R
KEWAUNEE LKSHORE 1900   33     330/ 11/ 20 1011.6S
NORTHPORT PIER   1900   31     320/ 16/ 21 1011.9S
STURGEON BAY CG  1900   32     350/  7     1012.4      6   1
CHAMBERS ISLAND  1900   32     310/ 12/ 17 1012.5S
MENOMINEE LKSHOR 1900   33     310/ 18     1012.8F
$$


USA.gov is the U.S. government's official web portal to all federal, state and local government web resources and services.